星链-34934(STARLINK-34934)

导读

STARLINK-34934是美国SpaceX星链互联网星座的一颗卫星,于2025年10月7日发射入轨,属于星链项目规模化部署的组成部分。这类卫星主要为全球偏远地区、海上船只及航空航班等提供高速低延迟的宽带互联网服务,助力全球互联网覆盖。

基本信息
目录编号:
65897
目录名称:
STARLINK-34934
国际标识:
2025-224R
轨道中心:
EARTH
卫星名称:
星链-34934
卫星全名:
星链-34934(STARLINK-34934)
卫星状态:
在轨 (已飞行332 天)
发射日期:
2025-10-07 UTC
国别 :
美国 (US)
星等 :
--
轨道信息
数据来源 国际轨道数据
星历时间: 2026-09-03T18:12:05+0800
21小时前
查看轨道信息
半长轴: 6840.852km
偏心率: 0.0001367
轨道倾角: 53.159°
近地点辐角 73.558°
升交点赤经 261.721°
平近点角 286.557°
近地点: 461.779km
远地点: 463.651km
周期: 93.848分钟
每日圈数: 15.343961
详细信息
固有亮度:
5
最大亮度:
2.5
卫星平台:
Starlink V1.0
覆盖范围:
全球
运营商:
太空探索技术公司
运营商所在国:
美国
制造商(研发单位):
太空探索技术公司
制造商所在国:
美国
使用方式:
暂无
卫星简介
Starlink 计划是 SpaceX 推出的全球卫星互联网项目,通过发射低轨道卫星,为全球尤其是偏远地区提供高速、低延迟的互联网服务。自 2019 年起,Starlink 已部署数千颗卫星,旨在缩小全球数字鸿沟,推动互联网普及。该项目还为军事、航空等行业提供通信支持,带来广泛经济效益。
2D轨道图
3D轨道图
轨道高度分析图
轨道倾角分析图
轨道综合分析图
查看轨道综合分析图
交会数据列表
事件ID 空间交会对象 最接近时刻(TCA) 交会距离 交会风险概率(CRP) 交会风险指数(CRI) 操作
CDM_260904-201806-582606-589721
2026-09-04T
20:18:45+0000
0.683 km
远距离
5.930961E-5 中风险 0.7
CDM_260904-215206-582606-589721
2026-09-04T
21:52:33+0000
2.031 km
极远距离
1.82669E-6 低风险 0.4
CDM_260905-075305-837806-589721
2026-09-05T
07:53:51+0000
1.539 km
极远距离
1.815611E-6 低风险 0.4
CDM_260904-184406-582606-589721
2026-09-04T
18:44:58+0000
2.327 km
极远距离
1.358967E-6 低风险 0.38
CDM_260904-140905-227006-589721
2026-09-04T
14:09:47+0000
2.668 km
极远距离
1.314745E-6 低风险 0.37